Find Yaogan 43-02-01

NORAD ID: 60945 Int'l Des: 2024-156 Owner: ZZB Country: CN Constellation: yaogan operational
LEOCIRCULAR

实时位置

正在加载3D地球...

关于 Yaogan 43-02-01

正在加载描述...

即将过境

Passes for default location (London). Set your location on the main map for personalized predictions.

高度历史

Loading altitude history...

两行轨道根数

1 60945U 24156A 26106.69627891 .00026049 00000-0 53989-3 0 9993
2 60945 34.9951 193.9003 0002361 95.6461 264.4529 15.44767014 90432
Epoch: Apr 16, 2026 • Age: 12 hours

当前状态

高度 438.7 km
速度 7.65 km/s
星下点 -26.22°S, 141.38°E
发射日期 Sep 3, 2024
运行时间 1.6 years
类型 military

技术详情

分类 Payload
质量 300.00 kg
干质量 300.00 kg
总质量 300.00 kg
长度 2.50 m
直径 2.50 m
跨度 5.00 m
形状 Box + 2 Pan
制造商 SAST
阶段状态 In Orbit
所有者/国家 ZZB/CN

Most Searched